KB1JDX Weather Reports


Display with metric or nautical units.
time (UTC)temp
F
wind
direction
speed
MPH
gust
MPH
rain 1hr
in
rain 24hr
in
rain mn
in
humidity
%
barometer
mb
20180424160458 63 244 6.0 12.0 0.00 0.00 0.00 37 1028.3
20180424154457 62 217 5.0 11.0 0.00 0.00 0.00 38 1028.7
20180424153217 61 180 7.0 11.0 0.00 0.00 0.00 38 1028.8
20180424150459 60 235 3.0 12.0 0.00 0.00 0.00 40 1029.2
20180424144500 59 202 4.0 11.0 0.00 0.00 0.00 40 1029.6
20180424143216 59 216 5.0 11.0 0.00 0.00 0.00 41 1029.8
20180424142459 58 180 4.0 11.0 0.00 0.00 0.00 42 1029.9
20180424140458 57 240 1.0 12.0 0.00 0.00 0.00 47 1030.1
20180424134459 54 231 1.0 6.0 0.00 0.00 0.00 56 1030.1
20180424133216 53 251 0.0 6.0 0.00 0.00 0.00 62 1030.2
20180424130456 50 256 4.0 6.0 0.00 0.00 0.00 71 1030.2
20180424123217 45 257 0.0 1.0 0.00 0.00 0.00 78 1030.5
20180424120458 42 208 0.0 0.0 0.00 0.00 0.00 79 1030.5
20180424114457 38 204 0.0 0.0 0.00 0.00 0.00 79 1030.7
20180424113217 36 204 0.0 0.0 0.00 0.00 0.00 79 1030.6
20180424112457 35 204 0.0 0.0 0.00 0.00 0.00 80 1030.4
20180424104457 31 205 0.0 0.0 0.00 0.00 0.00 80 1030.3
20180424103216 31 204 0.0 0.0 0.00 0.00 0.00 80 1030.3
20180424102458 31 204 0.0 0.0 0.00 0.00 0.00 80 1030.4
20180424094640 31 204 0.0 0.0 0.00 0.00 0.00 80 1030.2
20180424094457 31 204 0.0 0.0 0.00 0.00 0.00 80 1030.2
20180424093217 32 204 0.0 0.0 0.00 0.00 0.00 80 1030.1
20180424092458 32 204 0.0 0.0 0.00 0.00 0.00 80 1030.1
20180424084458 33 204 0.0 0.0 0.00 0.00 0.00 80 1030.2
20180424083217 33 204 0.0 0.0 0.00 0.00 0.00 80 1030.3
20180424082457 33 204 0.0 0.0 0.00 0.00 0.00 80 1030.3
20180424073216 34 204 0.0 0.0 0.00 0.00 0.00 78 1030.2
20180424063217 36 204 0.0 0.0 0.00 0.00 0.00 76 1030.3
20180424062458 36 204 0.0 0.0 0.00 0.00 0.00 76 1030.3
20180424060457 36 204 0.0 0.0 0.00 0.00 0.00 74 1030.6
20180424053217 38 204 0.0 0.0 0.00 0.00 0.00 70 1030.9
20180424052458 38 204 0.0 0.0 0.00 0.00 0.00 69 1030.7
20180424044458 39 205 0.0 0.0 0.00 0.00 0.00 65 1030.9
20180424043217 40 204 0.0 0.0 0.00 0.00 0.00 63 1030.9
20180424040458 41 204 0.0 0.0 0.00 0.00 0.00 59 1030.9
20180424034457 42 204 0.0 0.0 0.00 0.00 0.00 57 1031.2
20180424033217 42 204 0.0 0.0 0.00 0.00 0.00 54 1031.2
20180424032457 43 204 0.0 0.0 0.00 0.00 0.00 55 1031.3
20180424030458 44 204 0.0 1.0 0.00 0.00 0.00 53 1031.1
20180424023216 46 204 0.0 2.0 0.00 0.00 0.00 42 1031.1
20180424022457 46 204 0.0 2.0 0.00 0.00 0.00 43 1030.7
20180424013217 49 204 0.0 6.0 0.00 0.00 0.00 38 1031.3
20180424003218 52 224 0.0 9.0 0.00 0.00 0.00 33 1030.8
20180424001634 53 239 0.0 9.0 0.00 0.00 0.00 30 1030.6
20180424000654 53 244 0.0 11.0 0.00 0.00 0.00 28 1030.9
20180424000459 53 244 0.0 11.0 0.00 0.00 0.00 28 1030.8
20180423232129 56 255 2.0 12.0 0.00 0.00 0.00 27 1030.4
20180423222131 59 231 0.0 15.0 0.00 0.00 0.00 26 1030.0
20180423212131 61 213 7.0 15.0 0.00 0.00 0.00 25 1029.9
20180423202131 64 190 11.0 18.0 0.00 0.00 0.00 25 1029.6
20180423192131 67 290 0.0 10.0 0.00 0.00 0.00 15 1029.6
20180423182130 66 202 1.0 8.0 0.00 0.00 0.00 17 1030.2
20180423172130 65 305 2.0 8.0 0.00 0.00 0.00 19 1030.9
20180423162130 62 244 3.0 6.0 0.00 0.00 0.00 21 1031.4